Regional Weather Roundup
Issued by NWS

Home | Current Version | Previous Version | Graphics & Text | Print | Product List | Glossary On
Versions: 1 2 3 4 5 6 7 8 9 10 11 12 13 14 15 16 17 18 19 20 21 22 23 24 25 26 27 28 29 30 31 32 33 34 35 36 37 38 39 40 41 42 43 44 45 46 47 48 49 50
000
ASUS45 KPSR 171100
RWRAZ

PRELIMINARY ARIZONA REGIONAL HOURLY WEATHER ROUNDUP
NATIONAL WEATHER SERVICE PHOENIX AZ
400 AM MST WED DEC 17 2014

NOTE: FAIR INDICATES FEW OR NO CLOUDS BELOW 12,000 FEET WITH NO
SIGNIFICANT WEATHER AND/OR OBSTRUCTIONS TO VISIBILITY.

AZZ001>003-036-171200-
NORTHWEST ARIZONA

CITY           SKY/WX    TMP DP  RH WIND       PRES   REMARKS
KINGMAN        MOCLDY    40  36  86 S6        29.98F
$$

AZZ004>008-015-016-018-171200-
NORTH CENTRAL ARIZONA

CITY           SKY/WX    TMP DP  RH WIND       PRES   REMARKS
GRAND CANYON   LGT SNOW  31  30  96 SW5       30.00F FOG     WCI  26
PRESCOTT       CLOUDY    39  32  76 E5        29.99S
FLAGSTAFF      NOT AVBL
PAYSON         DRIZZLE   37  32  81 W3        30.03R
PAGE           CLOUDY    41  30  65 NW8       29.98F
$$

AZZ009>014-017-171200-
NORTHEAST ARIZONA

CITY           SKY/WX    TMP DP  RH WIND       PRES   REMARKS
WINSLOW        NOT AVBL
SAINT JOHNS    CLOUDY    38  33  82 NW3       29.99F
WINDOW ROCK    CLOUDY    32  28  85 CALM      30.00F
SHOW LOW       LGT SNOW  32  30  93 S3        30.02F
$$

AZZ023-171200-
GREATER PHOENIX AREA

CITY           SKY/WX    TMP DP  RH WIND       PRES   REMARKS
PHOENIX        LGT RAIN  53  49  86 SE7       30.00S
LUKE AFB       DRIZZLE   53  49  89 E7        30.00S
DEER VALLEY    LGT RAIN  50  48  93 SE3       30.00S
SCOTTSDALE     LGT RAIN  50  46  86 CALM      30.02R
$$

AZZ027-028-171200-
SOUTHWEST MARICOPA COUNTY AND PINAL COUNTY

CITY           SKY/WX    TMP DP  RH WIND       PRES   REMARKS
CASA GRANDE    CLOUDY    50  46  87 CALM      30.03R
GILA BEND      CLOUDY    51  46  83 S3        30.03S
$$

AZZ503-504-507>509-171200-
SOUTHEAST ARIZONA

CITY           SKY/WX    TMP DP  RH WIND       PRES   REMARKS
TUCSON         CLOUDY    50  43  77 CALM      30.04S
DAVIS-MONTHAN  CLOUDY    49  44  83 CALM      30.02S
NOGALES        CLOUDY    47  37  68 S9        30.05F
SIERRA VISTA   MOCLDY    46  37  71 CALM      30.05R
SAFFORD        CLOUDY    46  33  60 SE6       29.99S
$$

AZZ020-021-025-026-031-171200-
SOUTHWEST ARIZONA

CITY           SKY/WX    TMP DP  RH WIND       PRES   REMARKS
YUMA           PTCLDY   N/A N/A N/A CALM      30.00F
$$

CAZ031-033-041-043-047-048-061-171200-
SOUTHERN CALIFORNIA

CITY           SKY/WX    TMP DP  RH WIND       PRES   REMARKS
DOWNTOWN L.A.  CLOUDY    56  52  86 E3        29.96S
L.A. AIRPORT   LGT RAIN  54  53  97 NE6       29.96F
SAN DIEGO      MOCLDY    61  52  72 SW5       30.01F
BURBANK        LGT RAIN  54  51  90 CALM      29.95S
ONTARIO        LGT RAIN  53  49  86 VRB3      29.97S
RIVERSIDE      LGT RAIN  52  49  89 SE9       29.97F
PALM SPRINGS   CLOUDY    51  46  83 W5        30.02S
EL CENTRO NAS  MOCLDY    48  47  96 CALM      30.00R FOG
IMPERIAL       MOCLDY    50  48  93 CALM      29.99F
BLYTHE         PTCLDY    51  50  96 CALM      30.00F
$$

NVZ020-UTZ003-171200-
SOUTHERN NEVADA-UTAH

CITY           SKY/WX    TMP DP  RH WIND       PRES   REMARKS
LAS VEGAS      NOT AVBL
SALT LAKE CITY CLOUDY    33  30  88 CALM      29.97F
$$

NMZ009-TXZ055-171200-
NEW MEXICO-WEST TEXAS

CITY           SKY/WX    TMP DP  RH WIND       PRES   REMARKS
ALBUQUERQUE    LGT RAIN  34  27  75 VRB5      30.03F WCI  30
EL PASO        PTCLDY    39  28  64 NE6       30.00F WCI  35
$$


........................KEY........................
SKY/WX - SKY CONDITION/WEATHER
TMP    - TEMPERATURE IN FAHRENHEIT
DP     - DEW POINT IN FAHRENHEIT
RH     - RELATIVE HUMIDITY IN PERCENT
WIND   - DIRECTION AND SPEED IN MILES PER HOUR (MPH)
VRB    - VARIABLE WIND DIRECTION
PRES   - MEAN SEA LEVEL PRESSURE IN INCHES OF MERCURY
         F - FALLING PRESSURE   R - RISING PRESSURE
         S - STEADY PRESSURE
VSB    - VISIBILITY IN MILES
HX     - HEAT INDEX IN FAHRENHEIT
WCI    - WIND CHILL INDEX IN FAHRENHEIT
TC     - TEMPERATURE IN CELSIUS WHICH IS ALSO KNOWN AS
         TEMPERATURE IN CENTIGRADE
AFB    - AIR FORCE BASE
         LUKE AFB IS LUKE AIR FORCE BASE
         DAVIS-MONTHAN IS DAVIS-MONTHAN AIR FORCE BASE
NAS    - NAVAL AIR STATION
         EL CENTRO NAS IS EL CENTRO NAVAL AIR STATION
N/A    - NOT AVAILABLE


USA.gov is the U.S. government's official web portal to all federal, state and local government web resources and services.